Location: Ozark
(37.5425°N, 88.7628°W)
Time: 22:08:39
(UTC+00:00)

Shenzhou-11 Module - Pass Details

Date: 26 January 2020
Orbit: 297 x 312 km, 42.8° (Epoch: 19 February)

Event Time Altitude Azimuth Distance (km) Brightness Sun altitude
Rises 23:29:08 0° 280° (W) 2,044 6.9 -4.0°
Reaches altitude 10° 23:31:18 10° 293° (WNW) 1,210 5.3 -4.4°
Maximum altitude 23:33:39 26° 354° (N) 662 3.1 -4.8°
Drops below altitude 10° 23:36:00 10° 55° (NE) 1,201 3.9 -5.3°
Enters shadow 23:36:37 - 60° (ENE) 1,427 4.3 -5.4°
